^^
Cohasset Weather Station Historical Data
 
Daily Summary for October 20, 2019 Units:  English    Metric   Both
Daily Weekly Monthly Yearly Custom
  Current: High: Low: Average:
Temperature: 43 °F 43.9 °F 41.4 °F 42.3 °F
Dew Point: 33.9 °F 43.1 °F 33 °F 38.2 °F
Humidity: 70% 97% 68% 86%
Wind Speed: 0mph 0mph 0mph 0mph
Wind Gust: 0mph 0mph - -
WindCalm - - North
Pressure: 30.13 in 30.13 in 30.10 in -
Precipitation: 0 in      
Historical Graphs
 
 
Tabular Data for October 20, 2019
Time Temperature Dew Point Pressure Wind Wind Speed Wind Gust Humidity Rainfall Rate (Hourly) solar
00:00 43.9 °F 43.1 °F 30.11 in Calm     97% 0 in WeatherDisplay:10.37 W/m2
00:05 43.9 °F 43.1 °F 30.11 in Calm     97% 0 in WeatherDisplay:10.37 W/m2
00:10 43.9 °F 43.1 °F 30.10 in Calm     97% 0 in WeatherDisplay:10.37 W/m2
00:15 43.7 °F 42.9 °F 30.10 in Calm     97% 0 in WeatherDisplay:10.37 W/m2
00:20 43.7 °F 42.9 °F 30.10 in Calm     97% 0 in WeatherDisplay:10.37 W/m2
00:25 43.5 °F 42.7 °F 30.10 in Calm     97% 0 in WeatherDisplay:10.37 W/m2
00:30 43.5 °F 42.7 °F 30.10 in Calm     97% 0 in WeatherDisplay:10.37 W/m2
00:35 43.5 °F 42.7 °F 30.11 in Calm     97% 0 in WeatherDisplay:10.37 W/m2
00:40 43.3 °F 42.5 °F 30.11 in Calm     97% 0 in WeatherDisplay:10.37 W/m2
00:45 43.3 °F 42.5 °F 30.11 in Calm     97% 0 in WeatherDisplay:10.37 W/m2
00:50 43.2 °F 42.4 °F 30.11 in Calm     97% 0 in WeatherDisplay:10.37 W/m2
00:55 43.2 °F 42.4 °F 30.11 in Calm     97% 0 in WeatherDisplay:10.37 W/m2
01:00 43.2 °F 42.1 °F 30.11 in Calm     96% 0 in WeatherDisplay:10.37 W/m2
01:05 43 °F 41.9 °F 30.11 in Calm     96% 0 in WeatherDisplay:10.37 W/m2
01:10 42.8 °F 41.7 °F 30.11 in Calm     96% 0 in WeatherDisplay:10.37 W/m2
01:15 42.8 °F 41.7 °F 30.11 in Calm     96% 0 in WeatherDisplay:10.37 W/m2
01:20 42.8 °F 41.7 °F 30.12 in Calm     96% 0 in WeatherDisplay:10.37 W/m2
01:25 42.6 °F 41.5 °F 30.12 in Calm     96% 0 in WeatherDisplay:10.37 W/m2
01:30 42.6 °F 41.5 °F 30.12 in Calm     96% 0 in WeatherDisplay:10.37 W/m2
01:35 42.6 °F 41.5 °F 30.12 in Calm     96% 0 in WeatherDisplay:10.37 W/m2
01:40 42.6 °F 41.5 °F 30.12 in Calm     96% 0 in WeatherDisplay:10.37 W/m2
01:45 42.6 °F 41.5 °F 30.12 in Calm     96% 0 in WeatherDisplay:10.37 W/m2
01:50 42.6 °F 41.3 °F 30.12 in Calm     95% 0 in WeatherDisplay:10.37 W/m2
01:55 42.6 °F 41.3 °F 30.12 in Calm     95% 0 in WeatherDisplay:10.37 W/m2
02:00 42.6 °F 41.3 °F 30.12 in Calm     95% 0 in WeatherDisplay:10.37 W/m2
02:05 42.6 °F 41.3 °F 30.12 in Calm     95% 0 in WeatherDisplay:10.37 W/m2
02:10 42.6 °F 41.3 °F 30.12 in Calm     95% 0 in WeatherDisplay:10.37 W/m2
02:15 42.6 °F 41 °F 30.12 in Calm     94% 0 in WeatherDisplay:10.37 W/m2
02:20 42.6 °F 41 °F 30.13 in Calm     94% 0 in WeatherDisplay:10.37 W/m2
02:25 42.6 °F 41 °F 30.13 in Calm     94% 0 in WeatherDisplay:10.37 W/m2
02:30 42.6 °F 41 °F 30.13 in Calm     94% 0 in WeatherDisplay:10.37 W/m2
02:35 42.4 °F 40.8 °F 30.12 in Calm     94% 0 in WeatherDisplay:10.37 W/m2
02:40 42.4 °F 40.8 °F 30.12 in Calm     94% 0 in WeatherDisplay:10.37 W/m2
02:45 42.4 °F 40.8 °F 30.13 in Calm     94% 0 in WeatherDisplay:10.37 W/m2
02:50 42.3 °F 40.7 °F 30.13 in Calm     94% 0 in WeatherDisplay:10.37 W/m2
02:55 42.3 °F 40.7 °F 30.13 in Calm     94% 0 in WeatherDisplay:10.37 W/m2
03:01 42.3 °F 40.4 °F 30.12 in Calm     93% 0 in WeatherDisplay:10.37 W/m2
03:05 42.3 °F 40.1 °F 30.12 in Calm     92% 0 in WeatherDisplay:10.37 W/m2
03:10 42.1 °F 39.7 °F 30.12 in Calm     91% 0 in WeatherDisplay:10.37 W/m2
03:15 42.1 °F 39.4 °F 30.12 in Calm     90% 0 in WeatherDisplay:10.37 W/m2
03:20 42.1 °F 39.4 °F 30.12 in Calm     90% 0 in WeatherDisplay:10.37 W/m2
03:25 42.1 °F 39.4 °F 30.12 in Calm     90% 0 in WeatherDisplay:10.37 W/m2
03:30 42.1 °F 39.1 °F 30.12 in Calm     89% 0 in WeatherDisplay:10.37 W/m2
03:35 42.1 °F 39.1 °F 30.12 in Calm     89% 0 in WeatherDisplay:10.37 W/m2
03:40 42.1 °F 38.8 °F 30.12 in Calm     88% 0 in WeatherDisplay:10.37 W/m2
03:45 42 °F 38.5 °F 30.12 in Calm     87% 0 in WeatherDisplay:10.37 W/m2
03:50 41.9 °F 38 °F 30.12 in Calm     86% 0 in WeatherDisplay:10.37 W/m2
03:55 41.9 °F 38 °F 30.12 in Calm     86% 0 in WeatherDisplay:10.37 W/m2
04:00 41.9 °F 38 °F 30.12 in Calm     86% 0 in WeatherDisplay:10.37 W/m2
04:05 41.9 °F 38 °F 30.12 in Calm     86% 0 in WeatherDisplay:10.37 W/m2
04:10 41.9 °F 38 °F 30.12 in Calm     86% 0 in WeatherDisplay:10.37 W/m2
04:15 41.9 °F 38 °F 30.12 in Calm     86% 0 in WeatherDisplay:10.37 W/m2
04:20 41.9 °F 38 °F 30.12 in Calm     86% 0 in WeatherDisplay:10.37 W/m2
04:25 41.9 °F 38 °F 30.12 in Calm     86% 0 in WeatherDisplay:10.37 W/m2
04:30 41.9 °F 38 °F 30.12 in Calm     86% 0 in WeatherDisplay:10.37 W/m2
04:35 41.9 °F 38.3 °F 30.12 in Calm     87% 0 in WeatherDisplay:10.37 W/m2
04:40 41.9 °F 38.3 °F 30.12 in Calm     87% 0 in WeatherDisplay:10.37 W/m2
04:45 41.9 °F 38.3 °F 30.11 in Calm     87% 0 in WeatherDisplay:10.37 W/m2
04:50 41.7 °F 38.1 °F 30.11 in Calm     87% 0 in WeatherDisplay:10.37 W/m2
04:55 41.7 °F 38.1 °F 30.11 in Calm     87% 0 in WeatherDisplay:10.37 W/m2
05:00 41.7 °F 38.1 °F 30.11 in Calm     87% 0 in WeatherDisplay:10.37 W/m2
05:05 41.5 °F 37.9 °F 30.11 in Calm     87% 0 in WeatherDisplay:10.37 W/m2
05:10 41.5 °F 37.9 °F 30.11 in Calm     87% 0 in WeatherDisplay:10.37 W/m2
05:15 41.5 °F 37.9 °F 30.11 in Calm     87% 0 in WeatherDisplay:10.37 W/m2
05:20 41.4 °F 37.8 °F 30.11 in Calm     87% 0 in WeatherDisplay:10.37 W/m2
05:25 41.4 °F 37.8 °F 30.11 in Calm     87% 0 in WeatherDisplay:10.37 W/m2
05:30 41.4 °F 37.5 °F 30.11 in Calm     86% 0 in WeatherDisplay:10.37 W/m2
05:35 41.4 °F 37.2 °F 30.11 in Calm     85% 0 in WeatherDisplay:10.37 W/m2
05:40 41.4 °F 36.9 °F 30.11 in Calm     84% 0 in WeatherDisplay:10.37 W/m2
05:45 41.4 °F 36.9 °F 30.12 in Calm     84% 0 in WeatherDisplay:10.37 W/m2
05:50 41.4 °F 36.3 °F 30.12 in Calm     82% 0 in WeatherDisplay:10.37 W/m2
05:55 41.4 °F 36.3 °F 30.12 in Calm     82% 0 in WeatherDisplay:10.37 W/m2
06:00 41.5 °F 35.5 °F 30.12 in Calm     79% 0 in WeatherDisplay:10.37 W/m2
06:05 41.5 °F 35.2 °F 30.12 in Calm     78% 0 in WeatherDisplay:10.37 W/m2
06:10 41.5 °F 34.8 °F 30.12 in Calm     77% 0 in WeatherDisplay:10.37 W/m2
06:15 41.5 °F 34.8 °F 30.12 in Calm     77% 0 in WeatherDisplay:10.37 W/m2
06:20 41.5 °F 34.2 °F 30.13 in Calm     75% 0 in WeatherDisplay:10.37 W/m2
06:25 41.5 °F 33.8 °F 30.13 in Calm     74% 0 in WeatherDisplay:10.37 W/m2
06:30 41.5 °F 33.8 °F 30.13 in Calm     74% 0 in WeatherDisplay:10.37 W/m2
06:35 41.5 °F 33.1 °F 30.12 in Calm     72% 0 in WeatherDisplay:10.37 W/m2
06:40 41.5 °F 33.5 °F 30.12 in Calm     73% 0 in WeatherDisplay:10.37 W/m2
06:45 41.7 °F 33.7 °F 30.12 in Calm     73% 0 in WeatherDisplay:10.37 W/m2
06:50 41.7 °F 33.3 °F 30.12 in Calm     72% 0 in WeatherDisplay:10.37 W/m2
06:55 41.9 °F 33.9 °F 30.12 in Calm     73% 0 in WeatherDisplay:10.37 W/m2
07:00 41.9 °F 33.5 °F 30.12 in Calm     72% 0 in WeatherDisplay:10.37 W/m2
07:05 42.1 °F 33.4 °F 30.12 in Calm     71% 0 in WeatherDisplay:10.37 W/m2
07:10 42.3 °F 33.6 °F 30.13 in Calm     71% 0 in WeatherDisplay:10.37 W/m2
07:15 42.3 °F 33.6 °F 30.13 in Calm     71% 0 in WeatherDisplay:10.37 W/m2
07:20 42.4 °F 33.3 °F 30.13 in Calm     70% 0 in WeatherDisplay:10.37 W/m2
07:25 42.6 °F 33.5 °F 30.12 in Calm     70% 0 in WeatherDisplay:10.37 W/m2
07:30 42.6 °F 33.5 °F 30.12 in Calm     70% 0 in WeatherDisplay:10.37 W/m2
07:35 42.6 °F 33.5 °F 30.13 in Calm     70% 0 in WeatherDisplay:10.37 W/m2
07:40 42.6 °F 33.5 °F 30.13 in Calm     70% 0 in WeatherDisplay:10.37 W/m2
07:45 42.6 °F 33.5 °F 30.13 in Calm     70% 0 in WeatherDisplay:10.37 W/m2
07:50 42.6 °F 33.1 °F 30.13 in Calm     69% 0 in WeatherDisplay:10.37 W/m2
07:55 42.8 °F 33 °F 30.13 in Calm     68% 0 in WeatherDisplay:10.37 W/m2
08:00 42.8 °F 33 °F 30.13 in Calm     68% 0 in WeatherDisplay:10.37 W/m2
08:05 43 °F 33.5 °F 30.13 in Calm     69% 0 in WeatherDisplay:10.37 W/m2
08:10 43 °F 33.9 °F 30.13 in Calm     70% 0 in WeatherDisplay:10.37 W/m2
08:15 43 °F 33.9 °F 30.13 in Calm     70% 0 in WeatherDisplay:10.37 W/m2
Cohasset, California, USA
Compliments of Weather Underground - 1.25 mb